カタログに戻る

STARLINK-37095

運用中通信VLEO
NORAD 68237·PAYLOAD·🇺🇸 United States

打ち上げ Mar 17, 2026 から Vandenberg Space Force Base

Loading…

次のパス (今後24時間)

TLE

最新Source: CelesTrak SupGP

元期: Sep 15, 2026, 04:08 UTC

1 68237C 26054F   26258.17270833  .00021495  00000+0  63455-3 0  2581
2 68237  53.1556 126.9463 0001322 100.5596 117.6894 15.34405985    19

AllMySatでSTARLINK-37095をリアルタイム追跡

Download on the App Store